Flight Track Log - Related Links

Times and Time Zones

All times are in EDT time to prevent confusion due to time zone crossing. See the QXE158 flight status page for this flight to view local times or setup timezone preferences in your user account.

Time Position Orientation Groundspeed Altitude Reporting Facility
EDT Latitude Longitude Course Direction KTS MPH feet Rate Location/Type
Sat 12:53:53 PM 47.4569 -122.3083 26° Northeast 120 138 1,400  Level Seattle Center
Sat 12:55:12 PM 47.5133 -122.2672 82° East 203 234 4,300 2,311 Climbing Seattle Center
Sat 12:56:21 PM 47.5217 -122.1775 107° East 226 260 7,100 2,538 Climbing Seattle Center
Sat 12:57:22 PM 47.5019 -122.0811 107° East 248 285 9,800 2,705 Climbing Seattle Center
Sat 12:58:23 PM 47.4817 -121.9825 106° East 253 291 12,600 2,293 Climbing Seattle Center
Sat 12:59:25 PM 47.4556 -121.8492 107° East 292 336 14,500 1,171 Climbing Seattle Center
Sat 01:00:26 PM 47.4289 -121.7183 91° East 335 386 15,000 246 Climbing Seattle Center
Sat 01:01:27 PM 47.4272 -121.5792 91° East 350 403 15,000  Level Seattle Center
Sat 01:02:28 PM 47.4261 -121.4381 92° East 348 400 15,000  Level Seattle Center
Sat 01:03:29 PM 47.4233 -121.2978 92° East 347 399 15,000  Level Seattle Center
Sat 01:04:30 PM 47.4203 -121.1561 91° East 348 400 15,000 -49 Level Seattle Center
Sat 01:05:31 PM 47.4183 -121.0144 92° East 350 403 14,900 -590 Descending Seattle Center
Sat 01:06:32 PM 47.4142 -120.8369 92° East 364 419 13,800 -1,082 Descending Seattle Center
Sat 01:07:33 PM 47.4108 -120.7086 92° East 375 432 12,700 -1,475 Descending Seattle Center
Sat 01:08:34 PM 47.4075 -120.5494 90° East 321 369 10,800 -2,016 Descending Seattle Center
Sat 01:09:35 PM 47.4078 -120.4297 51° Northeast 291 335 8,600 -2,098 Descending Seattle Center
Sat 01:10:37 PM 47.4503 -120.3525 133° Southeast 267 307 6,500 -2,000 Descending Seattle Center
Sat 01:11:38 PM 47.4083 -120.2861 141° Southeast 215 247 4,500 -1,672 Descending Seattle Center
Sat 01:12:39 PM 47.3772 -120.2494 131° Southeast 179 206 3,100 -787 Descending Seattle Center
Sat 01:13:40 PM 47.3431 -120.1917 131° Southeast 172 198 2,900 -197 Descending Seattle Center

Login

Don't have an account? Register now (free) for customized features, flight alerts, and more!